FW4179 Weather Reports


Display with metric or nautical units.
time (UTC)temp
F
wind
direction
speed
MPH
gust
MPH
rain 1hr
in
rain 24hr
in
rain mn
in
humidity
%
barometer
mb
20260508104545 42 0 0.0 0.0 0.00 0.01 0.00 96 1017.3
20260508103049 42 0 0.0 0.0 0.00 0.01 0.00 94 1017.1
20260508101545 43 0 0.0 0.0 0.00 0.01 0.00 95 1016.9
20260508094549 43 0 0.0 0.0 0.00 0.01 0.00 95 1016.8
20260508093050 43 0 0.0 0.0 0.00 0.01 0.00 95 1016.7
20260508091607 43 0 0.0 0.0 0.00 0.01 0.00 94 1016.7
20260508090049 43 0 0.0 0.0 0.00 0.01 0.00 94 1016.6
20260508084548 42 0 0.0 0.0 0.00 0.01 0.00 93 1016.5
20260508083049 43 0 0.0 0.0 0.00 0.01 0.00 92 1016.6
20260508081608 43 0 0.0 0.0 0.00 0.01 0.00 91 1016.7
20260508080059 44 0 0.0 0.0 0.00 0.01 0.00 90 1016.7
20260508074545 45 0 0.0 0.0 0.00 0.01 0.00 90 1016.6
20260508073050 45 0 0.0 0.0 0.00 0.01 0.00 90 1016.7
20260508071547 45 0 0.0 0.0 0.00 0.01 0.00 89 1016.7
20260508070053 46 0 0.0 0.0 0.00 0.01 0.00 88 1016.8
20260508064546 47 0 0.0 0.0 0.00 0.01 0.00 86 1016.8
20260508063050 47 0 0.0 0.0 0.00 0.01 0.00 84 1016.8
20260508061553 47 0 0.0 0.0 0.00 0.01 0.00 84 1017.1
20260508060105 47 0 0.0 0.0 0.00 0.01 0.00 85 1017.0
20260508054626 47 0 0.0 0.0 0.00 0.01 0.00 86 1017.2
20260508053052 47 0 0.0 0.0 0.00 0.01 0.00 86 1017.3
20260508051543 48 0 0.0 0.0 0.00 0.01 0.00 85 1017.1
20260508050047 48 0 0.0 0.0 0.00 0.01 0.00 84 1017.2
20260508044548 49 0 0.0 0.0 0.00 0.01 0.01 83 1017.2
20260508043049 50 0 0.0 0.0 0.00 0.01 0.01 81 1017.2
20260508041545 50 0 0.0 0.0 0.00 0.01 0.01 78 1017.2
20260508040047 51 0 0.0 0.0 0.00 0.01 0.01 78 1017.1
20260508034551 51 0 0.0 0.0 0.00 0.02 0.01 77 1017.0
20260508033048 52 0 0.0 0.0 0.00 0.02 0.01 74 1017.0
20260508031553 53 0 0.0 0.0 0.00 0.02 0.01 70 1016.9
20260508030050 53 0 0.0 0.0 0.00 0.02 0.01 70 1016.9
20260508024604 54 0 0.0 0.0 0.00 0.02 0.01 72 1017.0
20260508023047 54 0 0.0 0.0 0.00 0.02 0.01 70 1016.8
20260508021545 54 0 0.0 0.0 0.00 0.02 0.01 70 1016.8
20260508020051 54 0 0.0 0.0 0.00 0.02 0.01 68 1016.7
20260508014547 55 0 0.0 0.0 0.00 0.02 0.01 68 1016.4
20260508013051 56 0 0.0 0.0 0.00 0.02 0.01 69 1016.0
20260508011550 57 0 0.0 0.0 0.00 0.02 0.01 64 1015.9
20260508010051 58 0 0.0 0.0 0.00 0.02 0.01 63 1015.7
20260508004547 58 0 0.0 0.0 0.00 0.02 0.01 62 1015.6
20260508003052 59 0 0.0 0.0 0.00 0.02 0.01 61 1015.5
20260508001556 60 0 0.0 0.0 0.00 0.02 0.01 60 1015.3
20260508000050 61 0 0.0 3.0 0.00 0.02 0.01 57 1015.1
20260507234546 62 0 0.0 3.0 0.00 0.03 0.01 58 1014.9
20260507233046 62 0 0.0 1.0 0.00 0.03 0.01 56 1014.7
20260507231548 63 319 0.0 4.0 0.00 0.03 0.01 56 1014.9
20260507230047 63 0 0.0 7.0 0.00 0.03 0.01 55 1014.9
20260507224549 63 0 0.0 5.0 0.00 0.03 0.01 56 1015.0
20260507223046 64 305 0.0 5.0 0.00 0.03 0.01 56 1015.0
20260507221545 64 284 1.0 6.0 0.00 0.03 0.01 55 1015.0
20260507220046 65 0 0.0 7.0 0.00 0.03 0.01 57 1015.0
20260507214549 65 0 2.0 9.0 0.00 0.03 0.01 53 1014.9
20260507213047 66 0 1.0 3.0 0.00 0.03 0.01 53 1014.9
20260507211553 65 315 2.0 8.0 0.00 0.03 0.01 55 1014.6
20260507210052 65 277 3.0 8.0 0.00 0.03 0.01 56 1014.5
20260507204549 65 238 3.0 7.0 0.00 0.03 0.01 55 1014.6
20260507203058 65 360 1.0 8.0 0.00 0.03 0.01 57 1014.6
20260507201551 64 305 2.0 8.0 0.00 0.03 0.01 56 1014.6
20260507200050 64 336 2.0 5.0 0.00 0.03 0.01 59 1014.6
20260507194548 63 360 2.0 9.0 0.00 0.03 0.01 58 1014.8
20260507193052 63 294 1.0 7.0 0.00 0.03 0.01 62 1014.7
20260507191553 64 13 2.0 8.0 0.00 0.03 0.01 60 1014.9
20260507190048 63 52 2.0 5.0 0.00 0.03 0.01 63 1015.0
20260507184546 63 263 1.0 6.0 0.00 0.03 0.01 65 1015.0
20260507183052 62 0 1.0 4.0 0.00 0.03 0.01 66 1015.1
20260507181553 62 283 2.0 8.0 0.00 0.03 0.01 65 1015.4
20260507180059 62 348 2.0 6.0 0.00 0.03 0.01 65 1015.5
20260507174602 61 351 1.0 9.0 0.00 0.03 0.01 68 1015.4
20260507173049 62 9 0.0 4.0 0.00 0.03 0.01 65 1015.5
20260507171603 62 0 2.0 5.0 0.00 0.03 0.01 63 1015.4
20260507170048 60 0 1.0 6.0 0.00 0.03 0.01 70 1015.1
20260507164549 61 0 1.0 8.0 0.00 0.04 0.01 70 1015.8
20260507163050 61 340 3.0 9.0 0.00 0.04 0.01 65 1015.7
20260507161556 61 73 2.0 9.0 0.00 0.04 0.01 66 1015.7
20260507160053 60 191 1.0 5.0 0.01 0.04 0.01 70 1016.0
20260507154545 58 337 2.0 6.0 0.01 0.05 0.01 72 1016.0
20260507153053 60 42 1.0 7.0 0.01 0.05 0.01 73 1015.9
20260507151549 59 0 1.0 4.0 0.01 0.05 0.01 75 1015.8
20260507150047 57 63 2.0 6.0 0.00 0.04 0.00 78 1015.8
20260507144546 56 87 0.0 5.0 0.00 0.06 0.00 85 1015.7
20260507143050 55 0 0.0 2.0 0.00 0.06 0.00 85 1015.7
20260507141553 54 0 0.0 3.0 0.00 0.06 0.00 87 1015.5
20260507140058 53 0 0.0 0.0 0.00 0.06 0.00 89 1015.5
20260507134545 52 0 0.0 4.0 0.00 0.08 0.00 92 1015.3
20260507133045 52 0 0.0 5.0 0.00 0.08 0.00 94 1015.3
20260507131548 52 0 0.0 2.0 0.00 0.08 0.00 95 1015.4
20260507124602 51 0 0.0 4.0 0.00 0.10 0.00 96 1015.3
20260507123048 51 0 0.0 0.0 0.00 0.10 0.00 97 1015.3
20260507121544 51 0 0.0 3.0 0.00 0.10 0.00 97 1015.2
20260507120046 51 0 0.0 0.0 0.00 0.10 0.00 97 1015.2
20260507114604 51 0 0.0 3.0 0.00 0.16 0.00 97 1015.0
20260507113052 51 0 0.0 0.0 0.00 0.16 0.00 97 1014.9
20260507111545 51 0 0.0 2.0 0.00 0.16 0.00 97 1014.5